Year,Month,Day,Hour,Minute,Value (Times are PST for windgust in km/hr)
2016,07,01,00,00,3.20
2016,07,01,00,01,3.20
2016,07,01,00,02,3.20
2016,07,01,00,03,4.80
2016,07,01,00,04,1.60
2016,07,01,00,05,6.40
2016,07,01,00,06,6.40
2016,07,01,00,07,6.40
2016,07,01,00,08,6.40
2016,07,01,00,09,6.40
2016,07,01,00,10,6.40
2016,07,01,00,11,4.80
2016,07,01,00,12,3.20
2016,07,01,00,13,3.20
2016,07,01,00,14,4.80
2016,07,01,00,15,3.20
2016,07,01,00,16,3.20
2016,07,01,00,17,6.40
2016,07,01,00,18,4.80
2016,07,01,00,19,6.40
2016,07,01,00,20,6.40
2016,07,01,00,21,3.20
2016,07,01,00,22,6.40
2016,07,01,00,23,4.80
2016,07,01,00,24,6.40
2016,07,01,00,25,4.80
2016,07,01,00,26,4.80
2016,07,01,00,27,4.80
2016,07,01,00,28,4.80
2016,07,01,00,29,3.20
2016,07,01,00,30,4.80
2016,07,01,00,31,4.80
2016,07,01,00,32,3.20
2016,07,01,00,33,3.20
2016,07,01,00,34,3.20
2016,07,01,00,35,3.20
2016,07,01,00,36,3.20
2016,07,01,00,37,4.80
2016,07,01,00,38,4.80
2016,07,01,00,39,6.40
2016,07,01,00,40,6.40
2016,07,01,00,41,9.60
2016,07,01,00,42,6.40
2016,07,01,00,43,4.80
2016,07,01,00,44,8.10
2016,07,01,00,45,9.60
2016,07,01,00,46,9.60
2016,07,01,00,47,6.40
2016,07,01,00,48,4.80
2016,07,01,00,49,3.20
2016,07,01,00,50,3.20
2016,07,01,00,51,3.20
2016,07,01,00,52,1.60
2016,07,01,00,53,1.60
2016,07,01,00,54,1.60
2016,07,01,00,55,1.60
2016,07,01,00,57,4.80
2016,07,01,00,58,3.20
2016,07,01,00,59,3.20
2016,07,01,01,00,4.80
2016,07,01,01,01,3.20
2016,07,01,01,02,1.60
2016,07,01,01,03,3.20
2016,07,01,01,04,1.60
2016,07,01,01,05,4.80
2016,07,01,01,06,3.20
2016,07,01,01,07,1.60
2016,07,01,01,08,1.60
2016,07,01,01,09,3.20
2016,07,01,01,10,3.20
2016,07,01,01,11,3.20
2016,07,01,01,12,4.80
2016,07,01,01,13,4.80
2016,07,01,01,14,4.80
2016,07,01,01,15,4.80
2016,07,01,01,16,4.80
2016,07,01,01,17,4.80
2016,07,01,01,18,6.40
2016,07,01,01,19,4.80
2016,07,01,01,20,4.80
2016,07,01,01,21,3.20
2016,07,01,01,22,4.80
2016,07,01,01,23,4.80
2016,07,01,01,24,4.80
2016,07,01,01,25,4.80
2016,07,01,01,26,3.20
2016,07,01,01,27,1.60
2016,07,01,01,28,1.60
2016,07,01,01,29,1.60
2016,07,01,01,30,3.20
2016,07,01,01,31,1.60
2016,07,01,01,32,1.60
2016,07,01,01,33,1.60
2016,07,01,01,34,3.20
2016,07,01,01,35,4.80
2016,07,01,01,36,3.20
2016,07,01,01,37,3.20
2016,07,01,01,38,1.60
2016,07,01,01,39,1.60
2016,07,01,01,40,3.20
2016,07,01,01,41,3.20
2016,07,01,01,42,3.20
2016,07,01,01,43,1.60
2016,07,01,01,44,1.60
2016,07,01,01,45,3.20
2016,07,01,01,46,3.20
2016,07,01,01,47,4.80
2016,07,01,01,48,3.20
2016,07,01,01,49,3.20
2016,07,01,01,50,3.20
2016,07,01,01,51,3.20
2016,07,01,01,52,1.60
2016,07,01,01,53,3.20
2016,07,01,01,54,6.40
2016,07,01,01,55,3.20
2016,07,01,01,56,6.40
2016,07,01,01,57,6.40
2016,07,01,01,58,4.80
2016,07,01,01,59,8.10
2016,07,01,02,00,6.40
2016,07,01,02,01,8.10
2016,07,01,02,02,8.10
2016,07,01,02,03,8.10
2016,07,01,02,04,4.80
2016,07,01,02,05,6.40
2016,07,01,02,06,4.80
2016,07,01,02,07,4.80
2016,07,01,02,08,8.10
2016,07,01,02,09,8.10
2016,07,01,02,10,3.20
2016,07,01,02,11,8.10
2016,07,01,02,12,3.20
2016,07,01,02,13,3.20
2016,07,01,02,14,3.20
2016,07,01,02,15,3.20
2016,07,01,02,16,3.20
2016,07,01,02,17,4.80
2016,07,01,02,18,4.80
2016,07,01,02,19,4.80
2016,07,01,02,20,4.80
2016,07,01,02,21,6.40
2016,07,01,02,22,4.80
2016,07,01,02,23,3.20
2016,07,01,02,24,1.60
2016,07,01,02,25,3.20
2016,07,01,02,26,3.20
2016,07,01,02,27,4.80
2016,07,01,02,28,3.20
2016,07,01,02,29,4.80
2016,07,01,02,30,4.80
2016,07,01,02,31,3.20
2016,07,01,02,32,6.40
2016,07,01,02,33,3.20
2016,07,01,02,34,3.20
2016,07,01,02,35,1.60
2016,07,01,02,37,3.20
2016,07,01,02,38,3.20
2016,07,01,02,39,3.20
2016,07,01,02,40,3.20
2016,07,01,02,41,3.20
2016,07,01,02,42,3.20
2016,07,01,02,43,1.60
2016,07,01,02,44,1.60
2016,07,01,02,45,4.80
2016,07,01,02,46,1.60
2016,07,01,02,47,1.60
2016,07,01,02,48,1.60
2016,07,01,02,49,1.60
2016,07,01,02,50,3.20
2016,07,01,02,51,3.20
2016,07,01,02,52,3.20
2016,07,01,02,53,1.60
2016,07,01,02,54,3.20
2016,07,01,02,55,4.80
2016,07,01,02,56,3.20
2016,07,01,02,57,3.20
2016,07,01,02,58,3.20
2016,07,01,02,59,1.60
2016,07,01,03,00,3.20
2016,07,01,03,01,4.80
2016,07,01,03,02,4.80
2016,07,01,03,03,4.80
2016,07,01,03,04,3.20
2016,07,01,03,05,3.20
2016,07,01,03,06,4.80
2016,07,01,03,07,4.80
2016,07,01,03,08,3.20
2016,07,01,03,09,3.20
2016,07,01,03,10,3.20
2016,07,01,03,11,1.60
2016,07,01,03,12,1.60
2016,07,01,03,13,4.80
2016,07,01,03,14,3.20
2016,07,01,03,15,3.20
2016,07,01,03,16,3.20
2016,07,01,03,17,1.60
2016,07,01,03,18,3.20
2016,07,01,03,19,3.20
2016,07,01,03,20,1.60
2016,07,01,03,21,3.20
2016,07,01,03,22,3.20
2016,07,01,03,23,3.20
2016,07,01,03,24,3.20
2016,07,01,03,25,3.20
2016,07,01,03,26,3.20
2016,07,01,03,27,1.60
2016,07,01,03,28,1.60
2016,07,01,03,29,1.60
2016,07,01,03,30,3.20
2016,07,01,03,31,1.60
2016,07,01,03,32,3.20
2016,07,01,03,33,4.80
2016,07,01,03,34,3.20
2016,07,01,03,35,3.20
2016,07,01,03,36,3.20
2016,07,01,03,37,4.80
2016,07,01,03,38,3.20
2016,07,01,03,39,3.20
2016,07,01,03,40,4.80
2016,07,01,03,41,4.80
2016,07,01,03,42,3.20
2016,07,01,03,43,1.60
2016,07,01,03,44,1.60
2016,07,01,03,45,3.20
2016,07,01,03,46,4.80
2016,07,01,03,47,3.20
2016,07,01,03,48,3.20
2016,07,01,03,49,1.60
2016,07,01,03,50,3.20
2016,07,01,03,51,1.60
2016,07,01,03,52,3.20
2016,07,01,03,53,4.80
2016,07,01,03,54,3.20
2016,07,01,03,55,3.20
2016,07,01,03,56,1.60
2016,07,01,03,57,1.60
2016,07,01,03,58,1.60
2016,07,01,03,59,6.40
2016,07,01,04,00,3.20
2016,07,01,04,01,4.80
2016,07,01,04,02,3.20
2016,07,01,04,03,1.60
2016,07,01,04,04,3.20
2016,07,01,04,08,1.60
2016,07,01,04,09,3.20
2016,07,01,04,10,3.20
2016,07,01,04,11,3.20
2016,07,01,04,12,1.60
2016,07,01,04,14,1.60
2016,07,01,04,15,1.60
2016,07,01,04,16,3.20
2016,07,01,04,17,4.80
2016,07,01,04,18,1.60
2016,07,01,04,19,1.60
2016,07,01,04,21,1.60
2016,07,01,04,22,1.60
2016,07,01,04,23,1.60
2016,07,01,04,24,1.60
2016,07,01,04,27,1.60
2016,07,01,04,30,1.60
2016,07,01,04,32,1.60
2016,07,01,04,38,1.60
2016,07,01,04,40,1.60
2016,07,01,04,41,3.20
2016,07,01,04,42,1.60
2016,07,01,04,43,3.20
2016,07,01,04,44,1.60
2016,07,01,04,45,3.20
2016,07,01,04,46,3.20
2016,07,01,04,47,3.20
2016,07,01,04,48,3.20
2016,07,01,04,49,3.20
2016,07,01,04,50,3.20
2016,07,01,04,51,3.20
2016,07,01,04,52,3.20
2016,07,01,04,53,3.20
2016,07,01,04,54,4.80
2016,07,01,04,55,4.80
2016,07,01,04,56,3.20
2016,07,01,04,57,3.20
2016,07,01,04,59,1.60
2016,07,01,05,00,3.20
2016,07,01,05,01,1.60
2016,07,01,05,02,1.60
2016,07,01,05,03,1.60
2016,07,01,05,04,3.20
2016,07,01,05,05,3.20
2016,07,01,05,06,3.20
2016,07,01,05,07,3.20
2016,07,01,05,08,1.60
2016,07,01,05,09,4.80
2016,07,01,05,10,4.80
2016,07,01,05,11,4.80
2016,07,01,05,12,4.80
2016,07,01,05,13,4.80
2016,07,01,05,14,4.80
2016,07,01,05,15,4.80
2016,07,01,05,16,4.80
2016,07,01,05,17,4.80
2016,07,01,05,18,4.80
2016,07,01,05,19,3.20
2016,07,01,05,20,3.20
2016,07,01,05,21,1.60
2016,07,01,05,22,1.60
2016,07,01,05,23,1.60
2016,07,01,05,24,4.80
2016,07,01,05,25,3.20
2016,07,01,05,27,1.60
2016,07,01,05,28,1.60
2016,07,01,05,30,1.60
2016,07,01,05,31,1.60
2016,07,01,05,32,1.60
2016,07,01,05,33,1.60
2016,07,01,05,34,1.60
2016,07,01,05,38,1.60
2016,07,01,05,43,1.60
2016,07,01,05,45,1.60
2016,07,01,05,46,1.60
2016,07,01,05,55,1.60
2016,07,01,05,57,1.60
2016,07,01,05,58,3.20
2016,07,01,05,59,1.60
2016,07,01,06,00,3.20
2016,07,01,06,01,3.20
2016,07,01,06,02,3.20
2016,07,01,06,03,3.20
2016,07,01,06,04,4.80
2016,07,01,06,05,4.80
2016,07,01,06,06,4.80
2016,07,01,06,07,4.80
2016,07,01,06,08,4.80
2016,07,01,06,09,4.80
2016,07,01,06,10,4.80
2016,07,01,06,11,1.60
2016,07,01,06,12,4.80
2016,07,01,06,13,3.20
2016,07,01,06,14,3.20
2016,07,01,06,15,1.60
2016,07,01,06,16,1.60
2016,07,01,06,22,1.60
2016,07,01,06,32,1.60
2016,07,01,06,33,1.60
2016,07,01,06,34,3.20
2016,07,01,06,38,1.60
2016,07,01,06,39,1.60
2016,07,01,06,40,1.60
2016,07,01,06,41,3.20
2016,07,01,06,42,3.20
2016,07,01,06,43,1.60
2016,07,01,06,44,1.60
2016,07,01,06,45,1.60
2016,07,01,06,46,1.60
2016,07,01,06,48,1.60
2016,07,01,06,49,1.60
2016,07,01,06,50,1.60
2016,07,01,06,51,1.60
2016,07,01,06,52,1.60
2016,07,01,06,53,1.60
2016,07,01,06,54,1.60
2016,07,01,06,59,1.60
2016,07,01,07,00,1.60
2016,07,01,07,01,3.20
2016,07,01,07,02,1.60
2016,07,01,07,14,1.60
2016,07,01,07,20,1.60
2016,07,01,07,21,1.60
2016,07,01,07,22,3.20
2016,07,01,07,23,1.60
2016,07,01,07,24,1.60
2016,07,01,07,25,3.20
2016,07,01,07,26,4.80
2016,07,01,07,27,4.80
2016,07,01,07,28,6.40
2016,07,01,07,29,3.20
2016,07,01,07,30,1.60
2016,07,01,07,31,1.60
2016,07,01,07,32,1.60
2016,07,01,07,33,3.20
2016,07,01,07,34,3.20
2016,07,01,07,35,3.20
2016,07,01,07,36,4.80
2016,07,01,07,37,1.60
2016,07,01,07,38,1.60
2016,07,01,07,39,1.60
2016,07,01,07,48,1.60
2016,07,01,07,49,1.60
2016,07,01,07,50,3.20
2016,07,01,07,51,3.20
2016,07,01,07,52,3.20
2016,07,01,07,53,4.80
2016,07,01,07,54,3.20
2016,07,01,07,56,4.80
2016,07,01,07,57,4.80
2016,07,01,07,58,3.20
2016,07,01,07,59,3.20
2016,07,01,08,00,3.20
2016,07,01,08,01,1.60
2016,07,01,08,02,3.20
2016,07,01,08,03,3.20
2016,07,01,08,04,1.60
2016,07,01,08,05,1.60
2016,07,01,08,06,3.20
2016,07,01,08,07,1.60
2016,07,01,08,08,1.60
2016,07,01,08,17,1.60
2016,07,01,08,18,1.60
2016,07,01,08,19,1.60
2016,07,01,08,32,1.60
2016,07,01,08,33,1.60
2016,07,01,08,34,1.60
2016,07,01,08,37,1.60
2016,07,01,08,38,1.60
2016,07,01,08,39,3.20
2016,07,01,08,40,3.20
2016,07,01,08,41,1.60
2016,07,01,08,42,3.20
2016,07,01,08,43,4.80
2016,07,01,08,44,4.80
2016,07,01,08,45,3.20
2016,07,01,08,46,3.20
2016,07,01,08,47,1.60
2016,07,01,08,48,4.80
2016,07,01,08,49,4.80
2016,07,01,08,50,3.20
2016,07,01,08,51,4.80
2016,07,01,08,52,4.80
2016,07,01,08,53,3.20
2016,07,01,08,54,4.80
2016,07,01,08,55,6.40
2016,07,01,08,56,3.20
2016,07,01,08,57,4.80
2016,07,01,08,58,4.80
2016,07,01,08,59,4.80
2016,07,01,09,00,1.60
2016,07,01,09,01,3.20
2016,07,01,09,02,1.60
2016,07,01,09,03,1.60
2016,07,01,09,27,1.60
2016,07,01,09,28,1.60
2016,07,01,09,29,3.20
2016,07,01,09,30,1.60
2016,07,01,09,31,1.60
2016,07,01,09,32,1.60
2016,07,01,09,33,3.20
2016,07,01,09,34,1.60
2016,07,01,09,35,1.60
2016,07,01,09,38,1.60
2016,07,01,09,41,1.60
2016,07,01,09,45,1.60
2016,07,01,09,46,1.60
2016,07,01,09,47,1.60
2016,07,01,09,49,1.60
2016,07,01,09,50,4.80
2016,07,01,09,51,4.80
2016,07,01,09,52,8.10
2016,07,01,09,53,8.10
2016,07,01,09,54,4.80
2016,07,01,09,55,6.40
2016,07,01,09,56,8.10
2016,07,01,09,57,8.10
2016,07,01,09,58,4.80
2016,07,01,09,59,4.80
2016,07,01,10,00,3.20
2016,07,01,10,01,3.20
2016,07,01,10,02,3.20
2016,07,01,10,03,3.20
2016,07,01,10,04,4.80
2016,07,01,10,05,8.10
2016,07,01,10,06,8.10
2016,07,01,10,07,3.20
2016,07,01,10,08,4.80
2016,07,01,10,09,1.60
2016,07,01,10,10,3.20
2016,07,01,10,11,4.80
2016,07,01,10,12,3.20
2016,07,01,10,13,3.20
2016,07,01,10,14,3.20
2016,07,01,10,15,3.20
2016,07,01,10,16,3.20
2016,07,01,10,18,3.20
2016,07,01,10,19,3.20
2016,07,01,10,20,1.60
2016,07,01,10,21,1.60
2016,07,01,10,22,6.40
2016,07,01,10,23,6.40
2016,07,01,10,24,6.40
2016,07,01,10,25,6.40
2016,07,01,10,26,4.80
2016,07,01,10,27,3.20
2016,07,01,10,28,1.60
2016,07,01,10,29,3.20
2016,07,01,10,30,6.40
2016,07,01,10,31,6.40
2016,07,01,10,32,8.10
2016,07,01,10,33,6.40
2016,07,01,10,34,6.40
2016,07,01,10,35,6.40
2016,07,01,10,36,8.10
2016,07,01,10,37,8.10
2016,07,01,10,38,6.40
2016,07,01,10,39,6.40
2016,07,01,10,40,4.80
2016,07,01,10,41,4.80
2016,07,01,10,42,4.80
2016,07,01,10,43,3.20
2016,07,01,10,44,4.80
2016,07,01,10,45,4.80
2016,07,01,10,46,3.20
2016,07,01,10,47,3.20
2016,07,01,10,48,3.20
2016,07,01,10,49,1.60
2016,07,01,10,50,1.60
2016,07,01,10,51,1.60
2016,07,01,10,52,3.20
2016,07,01,10,53,3.20
2016,07,01,10,54,3.20
2016,07,01,10,56,1.60
2016,07,01,10,57,1.60
2016,07,01,10,58,1.60
2016,07,01,10,59,3.20
2016,07,01,11,00,3.20
2016,07,01,11,01,1.60
2016,07,01,11,02,3.20
2016,07,01,11,03,3.20
2016,07,01,11,04,4.80
2016,07,01,11,05,3.20
2016,07,01,11,06,1.60
2016,07,01,11,07,1.60
2016,07,01,11,08,1.60
2016,07,01,11,09,1.60
2016,07,01,11,10,1.60
2016,07,01,11,11,1.60
2016,07,01,11,14,1.60
2016,07,01,11,15,3.20
2016,07,01,11,16,1.60
2016,07,01,11,19,3.20
2016,07,01,11,20,4.80
2016,07,01,11,21,4.80
2016,07,01,11,22,3.20
2016,07,01,11,23,6.40
2016,07,01,11,24,6.40
2016,07,01,11,25,4.80
2016,07,01,11,26,3.20
2016,07,01,11,27,3.20
2016,07,01,11,28,1.60
2016,07,01,11,29,3.20
2016,07,01,11,30,8.10
2016,07,01,11,31,4.80
2016,07,01,11,32,8.10
2016,07,01,11,33,11.30
2016,07,01,11,34,8.10
2016,07,01,11,35,6.40
2016,07,01,11,36,4.80
2016,07,01,11,37,6.40
2016,07,01,11,38,6.40
2016,07,01,11,39,4.80
2016,07,01,11,40,8.10
2016,07,01,11,41,6.40
2016,07,01,11,42,4.80
2016,07,01,11,43,6.40
2016,07,01,11,44,4.80
2016,07,01,11,45,6.40
2016,07,01,11,46,4.80
2016,07,01,11,47,3.20
2016,07,01,11,48,4.80
2016,07,01,11,49,9.60
2016,07,01,11,50,11.30
2016,07,01,11,51,8.10
2016,07,01,11,52,8.10
2016,07,01,11,53,8.10
2016,07,01,11,54,6.40
2016,07,01,11,55,3.20
2016,07,01,11,56,4.80
2016,07,01,11,57,6.40
2016,07,01,11,58,8.10
2016,07,01,11,59,11.30
2016,07,01,12,00,8.10
2016,07,01,12,01,4.80
2016,07,01,12,02,4.80
2016,07,01,12,03,6.40
2016,07,01,12,04,11.30
2016,07,01,12,05,11.30
2016,07,01,12,06,12.90
2016,07,01,12,07,12.90
2016,07,01,12,08,9.60
2016,07,01,12,09,6.40
2016,07,01,12,10,12.90
2016,07,01,12,11,11.30
2016,07,01,12,12,11.30
2016,07,01,12,13,12.90
2016,07,01,12,14,8.10
2016,07,01,12,15,11.30
2016,07,01,12,16,11.30
2016,07,01,12,17,8.10
2016,07,01,12,18,6.40
2016,07,01,12,19,11.30
2016,07,01,12,20,8.10
2016,07,01,12,21,6.40
2016,07,01,12,22,8.10
2016,07,01,12,23,8.10
2016,07,01,12,24,14.50
2016,07,01,12,25,12.90
2016,07,01,12,26,11.30
2016,07,01,12,27,12.90
2016,07,01,12,28,11.30
2016,07,01,12,29,8.10
2016,07,01,12,30,8.10
2016,07,01,12,31,11.30
2016,07,01,12,32,11.30
2016,07,01,12,33,11.30
2016,07,01,12,34,11.30
2016,07,01,12,35,8.10
2016,07,01,12,36,9.60
2016,07,01,12,37,8.10
2016,07,01,12,38,6.40
2016,07,01,12,39,11.30
2016,07,01,12,40,12.90
2016,07,01,12,41,6.40
2016,07,01,12,42,6.40
2016,07,01,12,43,6.40
2016,07,01,12,44,6.40
2016,07,01,12,45,14.50
2016,07,01,12,46,11.30
2016,07,01,12,47,11.30
2016,07,01,12,48,8.10
2016,07,01,12,49,12.90
2016,07,01,12,50,8.10
2016,07,01,12,51,12.90
2016,07,01,12,52,9.60
2016,07,01,12,53,11.30
2016,07,01,12,54,8.10
2016,07,01,12,55,12.90
2016,07,01,12,56,14.50
2016,07,01,12,57,12.90
2016,07,01,12,58,14.50
2016,07,01,12,59,11.30
2016,07,01,13,00,9.60
2016,07,01,13,01,9.60
2016,07,01,13,02,9.60
2016,07,01,13,03,8.10
2016,07,01,13,04,12.90
2016,07,01,13,05,9.60
2016,07,01,13,06,11.30
2016,07,01,13,07,11.30
2016,07,01,13,08,12.90
2016,07,01,13,09,9.60
2016,07,01,13,10,8.10
2016,07,01,13,11,11.30
2016,07,01,13,12,9.60
2016,07,01,13,13,8.10
2016,07,01,13,14,6.40
2016,07,01,13,15,6.40
2016,07,01,13,16,8.10
2016,07,01,13,17,11.30
2016,07,01,13,18,9.60
2016,07,01,13,19,8.10
2016,07,01,13,20,9.60
2016,07,01,13,21,11.30
2016,07,01,13,22,11.30
2016,07,01,13,23,11.30
2016,07,01,13,24,11.30
2016,07,01,13,25,16.10
2016,07,01,13,26,14.50
2016,07,01,13,27,12.90
2016,07,01,13,28,11.30
2016,07,01,13,29,11.30
2016,07,01,13,30,11.30
2016,07,01,13,31,8.10
2016,07,01,13,32,11.30
2016,07,01,13,33,11.30
2016,07,01,13,34,11.30
2016,07,01,13,35,6.40
2016,07,01,13,36,6.40
2016,07,01,13,37,8.10
2016,07,01,13,38,12.90
2016,07,01,13,39,8.10
2016,07,01,13,40,9.60
2016,07,01,13,41,9.60
2016,07,01,13,42,11.30
2016,07,01,13,43,8.10
2016,07,01,13,44,4.80
2016,07,01,13,45,3.20
2016,07,01,13,46,4.80
2016,07,01,13,47,8.10
2016,07,01,13,48,4.80
2016,07,01,13,49,8.10
2016,07,01,13,50,4.80
2016,07,01,13,51,8.10
2016,07,01,13,52,12.90
2016,07,01,13,53,12.90
2016,07,01,13,54,11.30
2016,07,01,13,55,8.10
2016,07,01,13,56,4.80
2016,07,01,13,57,4.80
2016,07,01,13,58,8.10
2016,07,01,13,59,1.60
2016,07,01,14,00,3.20
2016,07,01,14,01,4.80
2016,07,01,14,02,3.20
2016,07,01,14,03,3.20
2016,07,01,14,04,4.80
2016,07,01,14,05,3.20
2016,07,01,14,06,1.60
2016,07,01,14,07,3.20
2016,07,01,14,08,4.80
2016,07,01,14,09,8.10
2016,07,01,14,10,8.10
2016,07,01,14,11,6.40
2016,07,01,14,12,6.40
2016,07,01,14,13,3.20
2016,07,01,14,14,8.10
2016,07,01,14,15,12.90
2016,07,01,14,16,8.10
2016,07,01,14,17,6.40
2016,07,01,14,18,11.30
2016,07,01,14,19,8.10
2016,07,01,14,20,4.80
2016,07,01,14,21,6.40
2016,07,01,14,22,4.80
2016,07,01,14,23,4.80
2016,07,01,14,24,4.80
2016,07,01,14,25,4.80
2016,07,01,14,26,9.60
2016,07,01,14,27,6.40
2016,07,01,14,28,14.50
2016,07,01,14,29,11.30
2016,07,01,14,30,6.40
2016,07,01,14,31,6.40
2016,07,01,14,32,8.10
2016,07,01,14,33,4.80
2016,07,01,14,34,6.40
2016,07,01,14,35,8.10
2016,07,01,14,36,6.40
2016,07,01,14,37,8.10
2016,07,01,14,38,9.60
2016,07,01,14,39,6.40
2016,07,01,14,40,11.30
2016,07,01,14,41,8.10
2016,07,01,14,42,8.10
2016,07,01,14,43,4.80
2016,07,01,14,44,6.40
2016,07,01,14,45,8.10
2016,07,01,14,46,3.20
2016,07,01,14,47,6.40
2016,07,01,14,48,6.40
2016,07,01,14,49,6.40
2016,07,01,14,50,4.80
2016,07,01,14,51,4.80
2016,07,01,14,52,4.80
2016,07,01,14,53,8.10
2016,07,01,14,54,4.80
2016,07,01,14,55,4.80
2016,07,01,14,56,4.80
2016,07,01,14,57,6.40
2016,07,01,14,58,6.40
2016,07,01,14,59,9.60
2016,07,01,15,00,8.10
2016,07,01,15,01,6.40
2016,07,01,15,02,6.40
2016,07,01,15,03,9.60
2016,07,01,15,04,6.40
2016,07,01,15,05,9.60
2016,07,01,15,06,12.90
2016,07,01,15,07,11.30
2016,07,01,15,08,9.60
2016,07,01,15,09,6.40
2016,07,01,15,10,6.40
2016,07,01,15,11,4.80
2016,07,01,15,12,9.60
2016,07,01,15,13,6.40
2016,07,01,15,14,4.80
2016,07,01,15,15,6.40
2016,07,01,15,16,6.40
2016,07,01,15,17,6.40
2016,07,01,15,18,6.40
2016,07,01,15,19,4.80
2016,07,01,15,20,9.60
2016,07,01,15,21,4.80
2016,07,01,15,22,8.10
2016,07,01,15,23,8.10
2016,07,01,15,24,6.40
2016,07,01,15,25,3.20
2016,07,01,15,26,3.20
2016,07,01,15,27,6.40
2016,07,01,15,28,11.30
2016,07,01,15,29,8.10
2016,07,01,15,30,6.40
2016,07,01,15,31,9.60
2016,07,01,15,32,9.60
2016,07,01,15,33,9.60
2016,07,01,15,34,4.80
2016,07,01,15,35,6.40
2016,07,01,15,36,6.40
2016,07,01,15,37,8.10
2016,07,01,15,38,9.60
2016,07,01,15,39,14.50
2016,07,01,15,40,6.40
2016,07,01,15,41,6.40
2016,07,01,15,42,9.60
2016,07,01,15,43,8.10
2016,07,01,15,44,8.10
2016,07,01,15,45,8.10
2016,07,01,15,46,16.10
2016,07,01,15,47,9.60
2016,07,01,15,48,9.60
2016,07,01,15,49,8.10
2016,07,01,15,50,8.10
2016,07,01,15,51,11.30
2016,07,01,15,52,9.60
2016,07,01,15,53,9.60
2016,07,01,15,54,14.50
2016,07,01,15,55,11.30
2016,07,01,15,56,19.30
2016,07,01,15,57,19.30
2016,07,01,15,58,11.30
2016,07,01,15,59,9.60
2016,07,01,16,00,11.30
2016,07,01,16,01,9.60
2016,07,01,16,02,16.10
2016,07,01,16,03,9.60
2016,07,01,16,04,8.10
2016,07,01,16,05,8.10
2016,07,01,16,06,11.30
2016,07,01,16,07,12.90
2016,07,01,16,08,8.10
2016,07,01,16,09,14.50
2016,07,01,16,10,11.30
2016,07,01,16,11,11.30
2016,07,01,16,12,9.60
2016,07,01,16,13,11.30
2016,07,01,16,14,14.50
2016,07,01,16,15,12.90
2016,07,01,16,16,11.30
2016,07,01,16,17,17.70
2016,07,01,16,18,19.30
2016,07,01,16,19,20.90
2016,07,01,16,20,25.70
2016,07,01,16,21,24.20
2016,07,01,16,22,14.50
2016,07,01,16,23,20.90
2016,07,01,16,24,20.90
2016,07,01,16,25,12.90
2016,07,01,16,26,19.30
2016,07,01,16,27,22.50
2016,07,01,16,28,14.50
2016,07,01,16,29,16.10
2016,07,01,16,30,11.30
2016,07,01,16,31,16.10
2016,07,01,16,32,17.70
2016,07,01,16,33,17.70
2016,07,01,16,34,19.30
2016,07,01,16,35,17.70
2016,07,01,16,36,16.10
2016,07,01,16,37,17.70
2016,07,01,16,38,8.10
2016,07,01,16,39,22.50
2016,07,01,16,40,12.90
2016,07,01,16,41,20.90
2016,07,01,16,42,14.50
2016,07,01,16,43,14.50
2016,07,01,16,44,12.90
2016,07,01,16,45,17.70
2016,07,01,16,46,11.30
2016,07,01,16,47,11.30
2016,07,01,16,48,16.10
2016,07,01,16,49,19.30
2016,07,01,16,50,17.70
2016,07,01,16,51,20.90
2016,07,01,16,52,24.20
2016,07,01,16,53,24.20
2016,07,01,16,54,24.20
2016,07,01,16,55,20.90
2016,07,01,16,56,22.50
2016,07,01,16,57,19.30
2016,07,01,16,58,17.70
2016,07,01,16,59,19.30
2016,07,01,17,00,20.90
2016,07,01,17,01,16.10
2016,07,01,17,02,17.70
2016,07,01,17,03,14.50
2016,07,01,17,04,17.70
2016,07,01,17,05,17.70
2016,07,01,17,06,20.90
2016,07,01,17,07,22.50
2016,07,01,17,08,20.90
2016,07,01,17,09,16.10
2016,07,01,17,10,24.20
2016,07,01,17,11,14.50
2016,07,01,17,12,16.10
2016,07,01,17,13,16.10
2016,07,01,17,14,11.30
2016,07,01,17,15,12.90
2016,07,01,17,16,14.50
2016,07,01,17,17,20.90
2016,07,01,17,18,17.70
2016,07,01,17,19,12.90
2016,07,01,17,20,11.30
2016,07,01,17,21,9.60
2016,07,01,17,22,11.30
2016,07,01,17,23,11.30
2016,07,01,17,24,11.30
2016,07,01,17,25,14.50
2016,07,01,17,26,11.30
2016,07,01,17,27,12.90
2016,07,01,17,28,11.30
2016,07,01,17,29,17.70
2016,07,01,17,30,12.90
2016,07,01,17,31,16.10
2016,07,01,17,32,16.10
2016,07,01,17,33,16.10
2016,07,01,17,34,17.70
2016,07,01,17,35,19.30
2016,07,01,17,36,17.70
2016,07,01,17,37,20.90
2016,07,01,17,38,17.70
2016,07,01,17,39,19.30
2016,07,01,17,40,16.10
2016,07,01,17,41,14.50
2016,07,01,17,42,19.30
2016,07,01,17,43,20.90
2016,07,01,17,44,19.30
2016,07,01,17,45,17.70
2016,07,01,17,46,12.90
2016,07,01,17,47,14.50
2016,07,01,17,48,17.70
2016,07,01,17,49,17.70
2016,07,01,17,50,17.70
2016,07,01,17,51,17.70
2016,07,01,17,52,19.30
2016,07,01,17,53,16.10
2016,07,01,17,54,14.50
2016,07,01,17,55,14.50
2016,07,01,17,56,19.30
2016,07,01,17,57,19.30
2016,07,01,17,58,22.50
2016,07,01,17,59,17.70
2016,07,01,18,00,17.70
2016,07,01,18,01,16.10
2016,07,01,18,02,11.30
2016,07,01,18,03,19.30
2016,07,01,18,04,12.90
2016,07,01,18,05,16.10
2016,07,01,18,06,12.90
2016,07,01,18,07,17.70
2016,07,01,18,08,16.10
2016,07,01,18,09,16.10
2016,07,01,18,10,19.30
2016,07,01,18,11,16.10
2016,07,01,18,12,14.50
2016,07,01,18,13,14.50
2016,07,01,18,14,12.90
2016,07,01,18,15,12.90
2016,07,01,18,16,11.30
2016,07,01,18,17,17.70
2016,07,01,18,18,14.50
2016,07,01,18,19,14.50
2016,07,01,18,20,11.30
2016,07,01,18,21,11.30
2016,07,01,18,22,14.50
2016,07,01,18,23,16.10
2016,07,01,18,24,14.50
2016,07,01,18,25,9.60
2016,07,01,18,26,9.60
2016,07,01,18,27,8.10
2016,07,01,18,28,8.10
2016,07,01,18,29,9.60
2016,07,01,18,30,8.10
2016,07,01,18,31,14.50
2016,07,01,18,32,11.30
2016,07,01,18,33,9.60
2016,07,01,18,34,9.60
2016,07,01,18,35,8.10
2016,07,01,18,36,8.10
2016,07,01,18,37,9.60
2016,07,01,18,38,9.60
2016,07,01,18,39,8.10
2016,07,01,18,40,8.10
2016,07,01,18,41,8.10
2016,07,01,18,42,8.10
2016,07,01,18,43,9.60
2016,07,01,18,44,11.30
2016,07,01,18,45,11.30
2016,07,01,18,46,14.50
2016,07,01,18,47,14.50
2016,07,01,18,48,12.90
2016,07,01,18,49,12.90
2016,07,01,18,50,11.30
2016,07,01,18,51,14.50
2016,07,01,18,52,11.30
2016,07,01,18,53,11.30
2016,07,01,18,54,12.90
2016,07,01,18,55,11.30
2016,07,01,18,56,16.10
2016,07,01,18,57,11.30
2016,07,01,18,58,14.50
2016,07,01,18,59,12.90
2016,07,01,19,00,11.30
2016,07,01,19,01,16.10
2016,07,01,19,02,16.10
2016,07,01,19,03,12.90
2016,07,01,19,04,9.60
2016,07,01,19,05,16.10
2016,07,01,19,06,14.50
2016,07,01,19,07,12.90
2016,07,01,19,08,14.50
2016,07,01,19,09,8.10
2016,07,01,19,10,14.50
2016,07,01,19,11,12.90
2016,07,01,19,12,11.30
2016,07,01,19,13,11.30
2016,07,01,19,14,11.30
2016,07,01,19,15,11.30
2016,07,01,19,16,14.50
2016,07,01,19,17,12.90
2016,07,01,19,18,6.40
2016,07,01,19,19,11.30
2016,07,01,19,20,16.10
2016,07,01,19,21,12.90
2016,07,01,19,22,14.50
2016,07,01,19,23,6.40
2016,07,01,19,24,16.10
2016,07,01,19,25,9.60
2016,07,01,19,26,9.60
2016,07,01,19,27,9.60
2016,07,01,19,28,11.30
2016,07,01,19,29,12.90
2016,07,01,19,30,12.90
2016,07,01,19,31,14.50
2016,07,01,19,32,12.90
2016,07,01,19,33,14.50
2016,07,01,19,34,14.50
2016,07,01,19,35,12.90
2016,07,01,19,36,11.30
2016,07,01,19,37,11.30
2016,07,01,19,38,12.90
2016,07,01,19,39,11.30
2016,07,01,19,40,9.60
2016,07,01,19,41,12.90
2016,07,01,19,42,14.50
2016,07,01,19,43,12.90
2016,07,01,19,44,8.10
2016,07,01,19,45,14.50
2016,07,01,19,46,14.50
2016,07,01,19,47,11.30
2016,07,01,19,48,9.60
2016,07,01,19,49,12.90
2016,07,01,19,50,12.90
2016,07,01,19,51,11.30
2016,07,01,19,52,11.30
2016,07,01,19,53,8.10
2016,07,01,19,54,9.60
2016,07,01,19,55,9.60
2016,07,01,19,56,9.60
2016,07,01,19,57,9.60
2016,07,01,19,58,6.40
2016,07,01,19,59,8.10
2016,07,01,20,00,8.10
2016,07,01,20,01,9.60
2016,07,01,20,02,4.80
2016,07,01,20,03,4.80
2016,07,01,20,04,3.20
2016,07,01,20,05,8.10
2016,07,01,20,06,3.20
2016,07,01,20,07,1.60
2016,07,01,20,08,3.20
2016,07,01,20,09,3.20
2016,07,01,20,10,1.60
2016,07,01,20,11,3.20
2016,07,01,20,13,1.60
2016,07,01,20,14,3.20
2016,07,01,20,15,3.20
2016,07,01,20,16,3.20
2016,07,01,20,17,3.20
2016,07,01,20,18,3.20
2016,07,01,20,19,4.80